WA9LT Weather Reports


Display with metric or nautical units.
time (UTC)temp
F
wind
direction
speed
MPH
gust
MPH
rain 1hr
in
rain 24hr
in
rain mn
in
humidity
%
barometer
mb
20260906061122 72 71 3.0 6.0 0.00 0.00 0.00 69
20260906055622 72 76 1.0 5.0 0.00 0.00 0.00 69
20260906054121 72 124 1.0 1.0 0.00 0.00 0.00 69
20260906052621 73 48 0.0 0.0 0.00 0.00 0.00 69
20260906052320 73 8 0.0 0.0 0.00 0.00 0.00 69
20260906051122 73 69 2.0 4.0 0.00 0.00 0.00 69
20260906045622 73 16 1.0 2.0 0.00 0.00 0.00 69
20260906045606 73 66 2.0 6.0 0.00 0.00 0.00 69
20260906044121 73 48 2.0 2.0 0.00 0.00 0.00 69
20260906042621 73 113 2.0 5.0 0.00 0.00 0.00 69
20260906041122 74 67 3.0 6.0 0.00 0.00 0.00 69
20260906035622 74 285 0.0 1.0 0.00 0.00 0.00 69
20260906034122 73 56 0.0 2.0 0.00 0.00 0.00 69
20260906032622 73 124 0.0 0.0 0.00 0.00 0.00 69
20260906032331 73 124 0.0 0.0 0.00 0.00 0.00 69
20260906031123 73 124 0.0 0.0 0.00 0.00 0.00 69
20260906025623 73 124 0.0 0.0 0.00 0.00 0.00 69
20260906025401 73 124 0.0 0.0 0.00 0.00 0.00 69
20260906024122 73 124 0.0 0.0 0.00 0.00 0.00 69
20260906022623 73 337 0.0 0.0 0.00 0.00 0.00 69
20260906022524 74 337 0.0 0.0 0.00 0.00 0.00 69
20260906021122 74 337 0.0 0.0 0.00 0.00 0.00 69
20260906015622 74 337 0.0 0.0 0.00 0.00 0.00 69
20260906014121 75 64 1.0 2.0 0.00 0.00 0.00 69
20260906012623 75 71 0.0 0.0 0.00 0.00 0.00 69
20260906012253 76 71 0.0 0.0 0.00 0.00 0.00 69
20260906011122 76 1 0.0 2.0 0.00 0.00 0.00 69
20260906005622 77 2 0.0 1.0 0.00 0.00 0.00 69
20260906004123 77 23 0.0 1.0 0.00 0.00 0.00 69
20260906002623 78 1 1.0 5.0 0.00 0.00 0.00 69
20260906001121 79 26 1.0 1.0 0.00 0.00 0.00 69
20260905235623 80 131 2.0 3.0 0.00 0.00 0.00 69
20260905235350 80 34 2.0 3.0 0.00 0.00 0.00 69
20260905234122 81 137 2.0 5.0 0.00 0.00 0.00 69
20260905232621 82 64 1.0 4.0 0.00 0.00 0.00 69
20260905232404 83 62 2.0 3.0 0.00 0.00 0.00 69
20260905231122 83 348 1.0 3.0 0.00 0.00 0.00 69
20260905225622 84 324 1.0 2.0 0.00 0.00 0.00 69
20260905225447 85 340 2.0 4.0 0.00 0.00 0.00 69
20260905224123 86 161 3.0 7.0 0.00 0.00 0.00 69
20260905222623 86 334 3.0 4.0 0.00 0.00 0.00 69
20260905222523 86 0 3.0 3.0 0.00 0.00 0.00 69
20260905221122 87 126 3.0 6.0 0.00 0.00 0.00 69
20260905215635 88 355 3.0 4.0 0.00 0.00 0.00 69
20260905215622 88 96 2.0 3.0 0.00 0.00 0.00 69
20260905214121 88 63 2.0 4.0 0.00 0.00 0.00 69
20260905212621 87 44 1.0 4.0 0.00 0.00 0.00 69
20260905212555 89 326 2.0 4.0 0.00 0.00 0.00 69
20260905211122 89 1 3.0 5.0 0.00 0.00 0.00 69
20260905205622 90 3 4.0 7.0 0.00 0.00 0.00 69
20260905205507 89 24 2.0 5.0 0.00 0.00 0.00 69
20260905204122 89 76 2.0 3.0 0.00 0.00 0.00 69
20260905202631 91 332 3.0 4.0 0.00 0.00 0.00 69
20260905202622 90 354 3.0 5.0 0.00 0.00 0.00 69
20260905201121 91 350 4.0 8.0 0.00 0.00 0.00 69
20260905195623 91 277 0.0 5.0 0.00 0.00 0.00 69
20260905195435 90 150 1.0 6.0 0.00 0.00 0.00 69
20260905194122 90 1 2.0 3.0 0.00 0.00 0.00 69
20260905192622 90 48 1.0 2.0 0.00 0.00 0.00 69
20260905192447 91 125 0.0 1.0 0.00 0.00 0.00 69
20260905191123 91 330 3.0 5.0 0.00 0.00 0.00 69
20260905185623 90 23 1.0 2.0 0.00 0.00 0.00 69
20260905185420 91 354 3.0 4.0 0.00 0.00 0.00 69
20260905184122 90 122 1.0 3.0 0.00 0.00 0.00 69
20260905182622 90 84 1.0 2.0 0.00 0.00 0.00 69
20260905182338 91 8 0.0 2.0 0.00 0.00 0.00 69
20260905181121 90 358 1.0 1.0 0.00 0.00 0.00 69
20260905175621 90 124 1.0 4.0 0.00 0.00 0.00 69
20260905175437 89 42 1.0 2.0 0.00 0.00 0.00 69
20260905174122 90 352 1.0 1.0 0.00 0.00 0.00 69
20260905172622 90 13 0.0 1.0 0.00 0.00 0.00 69
20260905171121 90 26 1.0 2.0 0.00 0.00 0.00 69
20260905165621 89 66 2.0 2.0 0.00 0.00 0.00 69
20260905164122 89 29 1.0 3.0 0.00 0.00 0.00 69
20260905162624 88 21 2.0 4.0 0.00 0.00 0.00 69
20260905161123 87 15 0.0 3.0 0.00 0.00 0.00 69
20260905155749 87 90 3.0 6.0 0.00 0.00 0.00 69
20260905155623 87 21 2.0 2.0 0.00 0.00 0.00 69
20260905154123 87 81 1.0 6.0 0.00 0.00 0.00 69
20260905152622 86 18 3.0 3.0 0.00 0.00 0.00 69
20260905151122 85 20 1.0 3.0 0.00 0.00 0.00 69
20260905145622 84 34 1.0 1.0 0.00 0.00 0.00 69
20260905144123 84 43 1.0 2.0 0.00 0.00 0.00 69
20260905142623 83 15 3.0 3.0 0.00 0.00 0.00 69
20260905141122 83 7 1.0 2.0 0.00 0.00 0.00 69
20260905135622 82 335 1.0 2.0 0.00 0.00 0.00 69
20260905135300 81 88 2.0 5.0 0.00 0.00 0.00 69
20260905134123 81 73 1.0 0.0 0.00 0.00 0.00 69
20260905132623 80 260 0.0 0.0 0.00 0.00 0.00 69
20260905132446 79 54 0.0 1.0 0.00 0.00 0.00 69
20260905132006 79 54 0.0 1.0 0.00 0.00 0.00 69
20260905131123 78 0 0.0 0.0 0.00 0.00 0.00 69
20260905125623 76 350 0.0 0.0 0.00 0.00 0.00 69
20260905125338 76 350 0.0 0.0 0.00 0.00 0.00 69
20260905124124 76 350 0.0 0.0 0.00 0.00 0.00 69
20260905122624 74 172 0.0 0.0 0.00 0.00 0.00 69
20260905121123 74 172 0.0 0.0 0.00 0.00 0.00 69
20260905115623 74 172 0.0 0.0 0.00 0.00 0.00 69
20260905115356 74 172 0.0 0.0 0.00 0.00 0.00 69
20260905114124 74 172 0.0 0.0 0.00 0.00 0.00 69
20260905112624 74 172 0.0 0.0 0.00 0.00 0.00 69
20260905112515 74 172 0.0 0.0 0.00 0.00 0.00 69
20260905111123 74 172 0.0 0.0 0.00 0.00 0.00 69
20260905105623 75 172 0.0 0.0 0.00 0.00 0.00 69
20260905105345 75 172 0.0 0.0 0.00 0.00 0.00 69
20260905104124 75 172 0.0 0.0 0.00 0.00 0.00 69
20260905102624 75 172 0.0 0.0 0.00 0.00 0.00 69
20260905102254 75 172 0.0 0.0 0.00 0.00 0.00 69
20260905101123 75 172 0.0 0.0 0.00 0.00 0.00 69
20260905095623 75 172 0.0 0.0 0.00 0.00 0.00 69
20260905095450 76 172 0.0 0.0 0.00 0.00 0.00 69
20260905094122 76 172 0.0 0.0 0.00 0.00 0.00 69
20260905092622 76 172 0.0 0.0 0.00 0.00 0.00 69
20260905092342 76 172 0.0 0.0 0.00 0.00 0.00 69
20260905091123 77 172 0.0 0.0 0.00 0.00 0.00 69
20260905085624 77 209 1.0 2.0 0.00 0.00 0.00 69
20260905085356 77 187 1.0 2.0 0.00 0.00 0.00 69
20260905084122 76 152 1.0 2.0 0.00 0.00 0.00 69
20260905082622 76 244 0.0 0.0 0.00 0.00 0.00 69
20260905082344 76 260 0.0 0.0 0.00 0.00 0.00 69
20260905081123 76 260 0.0 0.0 0.00 0.00 0.00 69
20260905075623 76 260 0.0 0.0 0.00 0.00 0.00 69
20260905075341 76 260 0.0 0.0 0.00 0.00 0.00 69
20260905074122 76 260 0.0 0.0 0.00 0.00 0.00 69
20260905072622 76 241 0.0 0.0 0.00 0.00 0.00 69
20260905072308 76 241 0.0 0.0 0.00 0.00 0.00 69
20260905071123 76 74 0.0 2.0 0.00 0.00 0.00 69
20260905065623 77 72 0.0 0.0 0.00 0.00 0.00 69
20260905065507 77 72 0.0 0.0 0.00 0.00 0.00 69
20260905064122 77 72 0.0 0.0 0.00 0.00 0.00 69
20260905062622 77 161 0.0 0.0 0.00 0.00 0.00 69
20260905062347 77 161 0.0 0.0 0.00 0.00 0.00 69